Location: ?????????
(54.7630°N, 39.4991°E)
Time: 09:02:38
(UTC+00:00)

Helios 1A Rocket - Pass Details

Date: 14 April 2026
Orbit: 406 x 416 km, 98.3° (Epoch: 9 May)

Event Time Altitude Azimuth Distance (km) Brightness Sun altitude
Rises 17:52:52 0° 11° (NNE) 2,401 6.5 -12.2°
Reaches altitude 10° 17:54:55 10° 6° (N) 1,528 5.5 -12.4°
Maximum altitude 17:58:04 47° 291° (WNW) 570 3.4 -12.8°
Drops below altitude 10° 18:01:11 10° 217° (SW) 1,508 5.0 -13.1°
Sets 18:03:12 0° 211° (SSW) 2,364 6.0 -13.4°
